[Date Prev][Date Next][Thread Prev][Thread Next][Date Index][Thread Index]

[jamsat-news:1765] jas2info #300



========================   最新情報   ==============================

        Last updated  16Dec2002  18:40(JST)   #300

====================================================================
   
1)アマチュア通信衛星情報、FOシリーズの軌道要素、テレメトリ、QSOの
   状況等をまとめてみました.
   
 FO−29の2002年12月20日(金)の16:04(JST)のパスでは
JARLのホームページにあるとうりアナログ運用でした。 今日までの観測した
テレメトリーと本日のテレメトリ最終行の分析結果を報告しておきます。

AS31317C  20Dec2002
16:04-16:17(JST)
AOS   MEL  LOS  Elev
 19   100  180  52.7
Freq. 435.804-.789Hz
(JAS-2 No.112 B 2030-2670)   
                                                8F 8A 97 8C AA A9 A9 AA A4 
HI HI AE 07 88 55 00 D4 00 00 09 00 88 96 74 4C 8F 8A 9E 81 AA A9 A9 AA A4 
HI HI AE 07 8  55 00 D4 00 00 09 00 9F 86 61 58 8D 89 96 81 AA A8 A9 AA A4 
HI HI AE 07 88 55 01 D4 00 00 09 00 9D 6B 6D 51 8F 8A 97 72 AA A9 A9 AA A4 
HI HI AE 07 88 55 00 D4 00 00 09 00 81 54 75 50 90 8B 98 84 AB A9 AA AA A5 
HI HI AE 07 88 55 00 D4 00 00 09 00 61 4A 7E 47 91 8B 99 8E AB A9 AA AA A5 
HI HI AE 07 88 55 00 D4 00 00 09 00 44 55 7C 49 92 8D 9A 83 AB A9 AA AA A5 
HI HI AE 07 88 55 00 D4 00 00 09 00 58 69 79 49 92 6D 9A 8A AB A9 AA AA A5 
HI HI AE 07 88 55 00 D4 00 00 09 00 64 40 84 7D 48 53 98 8B AB A9 AA AA A5
HI HI AE 07 88 55 00 D4 00 00 09 00 7E 85 75 97 7C 4D 94 8F AB A9 AA AA A5 
HI HI AE 07 88 55 00 D4 00 00 09 00 74 9D 6B 51 93 8D 9B 83 AB A9 A9 AA A5 
HI HI AE 07 88 55 00 D4 00 00 09 00 87 95 71 4F 93 8E 9B 7F AB A8 AA AB A5 
HI HI AE 07 88 55 00 D4 00 00 09 00 8D 85 77 4B 96 90 9D 7E AB A9 AA AB A5 
HI HI AE 07 88 55 00 D4 00 00 09 00 82 74 7C 49 98 91 B0 84 AB A9 AA AB A5
HI HI AE 07 88 55 00 D4 00 00 09 00 6D 67 7F 5F 94 90 9E 85 AB A9 AA AB A5 
HI HI AE 07 88 55 00 D4 00 00 09 00 58 69 7A 4B 97 91 B0 7E AB A9 AA AB A5 
HI HI AE 07 88 55 00 D4 00 00 09 00 49 6F 78 5F 94 8F 9D 76 AB A8 AA AB A5 
HI HI AE C7 88 55 00 D4 00 00 09 00 44 7F 7E 48 98 90 B0 8E AB A8 AA AB A5 
HI HI AE 07 88 55 00 D4 00 00 09 00 47 72 5F 7E 97 8D 8A AB A8 A8 AA AB A5 
HI HI AE 07 88 55 00 D4 00 00 09 00 58 99 6E 5F 95 8F B0 6D AB A8 AA AB A5 

AS31303C  19Dec2002
15:09-15:27(JST)
AOS   MEL  LOS  Elev
 32    95  156  21.2
Freq. 435.802-.789Hz
(JAS-2 No.112 B 1370-2030)  
                                          6B 6B 8F 88 95 7F AA A7 A9 AA A4 
HI HI AE 07 88 55 00 D4 00 00 09 00 42 41 73 4B 8F 8A 96 7A AA A8 A9 AB A4 
HI HI AE 07 88 55 00 D4 00 00 09 00 46 5F 7A 4B 8F 8A 97 86 AA A8 AA AB A4 
HI HI AE 07 88 55 00 D4 00 00 09 00 A6 55 72 4F 8E 8A 97 7C AA A8 A9 AB A4
HI HI AE 07 88 55 00 D4 00 00 09 00 5E 76 77 4B 8F 8B 98 7D AA A8 A9 AB A5 
HI HI AE 07 88 55 00 D4 00 00 09 00 4F 86 77 4C 8F 8B 98 87 AA A8 AA AB A5 
HI HI AE 07 88 55 00 D4 00 00 09 00 6D 90 78 4B 90 8B 98 7F AA A8 A9 AB A5 
HI HI AE 07 88 55 00 D4 00 00 09 00 89 8B 6B 52 8F 8B 97 84 AA A8 AA AB A5 
HI HI AE 07 88 55 00 D4 00 00 09 00 98 7B 6E 50 8F 8B 97 8E AA A8 A9 AB A5 
HI HI AE 07 88 55 00 D4 00 00 09 00 95 69 78 4A 91 8C 9A 80 AB A8 AA AB A5 
HI HI AE 07 88 55 00 D4 00 00 09 00 84 5B 78 49 92 8D 9A 66 AB A8 AA AB A5 
HI HI AE 07 88 55 00 D4 00 00 09 00 6B 58 7E 49 93 8E 9C 7D AB A8 AA AB A5
HI HI AE 07 88 55 00 D4 00 00 09 00 57 53 7D 48 94 8F 9C 8C AB A8 AA AB A5 
HI HI AE 07 88 55 00 D4 00 00 09 00 44 6D 7D 49 95 90 9E 89 AB A8 AA AB A5 
HI HI AE 07 88 55 00 D4 00 00 09 00 42 7F 78 4A 96 91 9E 78 AB A8 AA AB A5 
HI HI AE 07 88 55 00 D4 00 00 09 00 4D 8F 7C 4C 95 91 9E 6F IB A8 AA AB A5 
HI HI AE 07 88 55 00 D4 00 00 09 00 5F 97 72 4F 95 8F 9D 81 AB A8 AA AB A5 
HI HI AE 07 88 55 00 D4 00 00 09 00 79 73 79 6D 95 95 90 67 AB A7 AA AB A5 
HI HI AE C7 88 55 00 D4 00 00 09 00 83 93 7A 4B 96 90 B0 89 AB A7 AA AB A5
HI HI AE 07 88 55 00 D4 00 00 09 90 8A 87 79 5F 94 90 B0 7A AB A8 AA AB A5 
HI HI AE C7 88 55 00 D4 00 00 09 00 89 80 7F 60 94 8F B0 61 AB A8 AA AB A5

------------------------  FO-29の軌道要素 ------------------------------        
 
  ■ 軌道要素1:「jamsat−keps:1266」より         
          SB KEPS @ AMSAT  $ORB02353.N
          2Line Orbital Elements 02353.AMSAT

HR AMSAT ORBITAL ELEMENTS FOR AMATEUR SATELLITES IN NASA FORMAT
FROM WA5QGD FORT WORTH,TX December 19, 2002
SEND SUBSCRIBE/UNSUBSCRIBE TO majordomo@amsat.org ONLY
BID: ORB02353.N

 DECODE 2-LINE ELSETS WITH THE FOLLOWING KEY:
 1 AAAAAU 00  0  0 BBBBB.BBBBBBBB  .CCCCCCCC  00000-0  00000-0 0  DDDZ
 2 AAAAA EEE.EEEE FFF.FFFF GGGGGGG HHH.HHHH III.IIII JJ.JJJJJJJJKKKKKZ
 KEY: A-CATALOGNUM B-EPOCHTIME C-DECAY D-ELSETNUM E-INCLINATION F-RAAN
 G-ECCENTRICITY H-ARGPERIGEE I-MNANOM J-MNMOTION K-ORBITNUM Z-CHECKSUM

FO-29
1 24278U 96046B   02352.93666086  .00000055  00000-0  91390-4 0 05682
2 24278 098.5304 147.5524 0351442 016.3794 344.8366 13.52866923312972

 ■ 軌道要素2:「jamsat−keps:1265」より 
       SB KEPS @ AMSAT  $ORB02353.O
       Orbital Elements  02353.OSCAR

HR AMSAT ORBITAL ELEMENTS FOR OSCAR SATELLITES
FROM WA5QGD FORT WORTH,TX December 19, 2002
SEND SUBSCRIBE/UNSUBSCRIBE TO majordomo@amsat.org ONLY
BID: ORB02353.O
TO ALL RADIO AMATEURS BT

Satellite: FO-29
Catalog number: 24278
Epoch time:      02352.93666086
Element set:    0568
Inclination:      098.5304 deg
RA of node:       147.5524 deg
Eccentricity:    0.0351442
Arg of perigee:   016.3794 deg
Mean anomaly:     344.8366 deg
Mean motion:   13.52866923 rev/day
Decay rate:        5.5e-07 rev/day^2
Epoch rev:           31297
Checksum:              337

-------------------  FO-29(JAS-2)のテレメトリに関する情報  ---------------------- 
 
2)上記2002年12月16日(月)のテレメトリの17:54のパスの最終行を分析して
 おきます。構体温度が全体的に下がって来ております。

AS31317C  20Dec2002
16:04-16:17(JST)
AOS   MEL  LOS  Elev
 19   100  180  52.7
Freq. 435.804-.789Hz
(JAS-2 No.112 B 2030-2670)   
 
HI HI AE 07 88 55 00 D4 00 00 09 00 58 99 6E 5F 95 8F B0 6D AB A8 AA AB A5 

テレメトリ   内 容        換算算値 単 位
3C	磁気センサーZ軸=	43137.2	[nT]
3D	磁気センサX軸	=	75000.0	[nT]
4A	太陽電池発生電流=	1078.4	[mA]
4B	B充放電電流	=	-138.0	[mA]
4C	B端子電圧	=	16.0	[V]
4D	B中間端子電圧	=	6.9	[V]
5A	バス電圧	=	17.3	[V]
5B	JTA送信電力	=	610.4	[mW]
5C 	構体温度1	=	15.5	[℃]
5D	構体温度2	=	16.6	[℃]
6A	構体温度3	=	15.9	[℃]
6B	構体温度4	=	15.5	[℃]
6C	Bセル温度	=	17.8	[℃]

 ========================== FO-29(ふじ3号)のテレメトリ分析、QSO情報等 =====================
   
 3)[jamsat-bb:12542]にてJAS-1b(FO-20)運用についてJN1GKZ新井さんのコメントがありましたので
   転載させて頂きました。

 WH6BIE KelyさんがFO-20にQRVされています。27日 13時過ぎのパスで良好
にQSOできました。このパスでは九州まで開けていましたが、QSOしたのは私
だけのようでした。
 毎週末、FO-20の日本とのパスにQRVするとのことでしたので、探してみて
下さい。

JN1GKZ 新井
   jn1gkz@jamsat.or.jp     http://www.ne.jp/asahi/m-arai/gkz/
-------------
JAMSAT BB Mailing List
http://www.jamsat.or.jp/infoserv/mlist.html
 =================================================================================================
 
 4)JARL のホームページに運用予定が記載されていましたのでご紹介します.
       ( http://www.jarl.or.jp/Japanese/3_Fuji/new/uy.htm )
       
        *** 運用予定について ***

        当分の間     アナログ系運用

  * なお,運用予定は都合により,変更することがありますの,であらかじめご了承願います。

 照会先 : lab@jarl.or.jp

 最新の情報はテレホンサービス(03−3942−1000)をお聞きください。  
  
  ふじ2号(JAS−1b)の運用 

 CWテレメトリの機能に障害が発生しています。詳細は「ふじ2号」の現況をご覧ください。
 運用はアナログ系の連続運用とします。 
     
-----------------------    FO−20(JAS-1b)道要素   -------------------------
  
  ■ 軌道要素1 :出典はFO-29「ふじ3号」に同じ.
  
FO-20
1 20480U 90013C   02352.95764936  .00000041  00000-0  15794-3 0 04661
2 20480 099.0364 322.3192 0540830 143.3395 220.6012 12.83327160602618
 
  ■ 軌道要素2 :出典はFO−29「ふじ3号」に同じ.
               
Satellite: FO-20
Catalog number: 20480
Epoch time:      02352.95764936
Element set:    0466
Inclination:      099.0364 deg
RA of node:       322.3192 deg
Eccentricity:    0.0540830
Arg of perigee:   143.3395 deg
Mean anomaly:     220.6012 deg
Mean motion:   12.83327160 rev/day
Decay rate:        4.1e-07 rev/day^2
Epoch rev:           60261
Checksum:              271

-------------------------------------------------------------------------------- 
         ■ ふじ2号/FO−20/JAS-1b ■      
            
          「ふじ2号」 現況                                                                                  
             
   JAS-1b(ふじ2号)のCWテレメトリ信号に,1997年10月12日12時(JST)の
 日本上空通過時,3桁の数字が繰り返されるはずが3個の長音の繰り返しとなっているという
 異常が発見されました。この不具合は次の通過時からは回復していましたが13日15時20分の
 通過時に再び観測されました。現在はA0の送信が続いています。衛星のアナログ系中継モード
 動作は異常が無く,正常時のテレメトリ内容からは衛星の動作に異常は認められません。従って,
 直ちに衛星のミッションに影響することは無いと予想されますので,当面はアナログ系中継
 モードを継続します。衛星は既に打ち上げてから7年8ヶ月を経ておりますので,今後は監視を
 強化する予定です。アマチュア各位のレポートをお待ちします。
 -------------------------------------------------------------------------------- 
  1997年10月14日 00時35分 確認のテレメトリ音 151 KB (A0) 
  1997年10月14日 11時10分 確認のテレメトリ音 216 KB (異常キーイング) 

  以上 JARLのホ−ムページの http://www.jarl.or.jp/Japanese/3_Fuji/new/fuji.htm

===================== FO-20 ふじ2号 のテレメトリ観測結果 ====================

  12月20日(金)13:59(JST)の観測結果ではテレメトリは、以前観測した単一周波数の
正弦波がドップラー効果で周波数がずれていくのみの状態でした。
                                         
   =============   JAS-2 (ふじ3号)と現在までの情報   ===========
  
  A.電話によるふじ3号の運用情報
      社団法人日本アマチュア連盟によるサービス
           TEL .   03− 3942 − 1000
  B.アマチュア無線FAXサービス
      JARLによるふじ3号の軌道情報(オービットカレンダー)
         FAX No.  03− 3233 −0055
  C.WWWブラウザで情報を簡単に見れる人のためにJAS-1,JAS‐1b,
   JAS‐2(ふじ1号からふじ3号の衛星としての運用されるまでの名前)の
   概要、打ち上げまでの状況、運用中における状況を説明したホームページを
   紹介しておきます.

     社団法人日本アマチュア無線連盟(JARL)のホームページ

         http://www.jarl.or.jp/Japanese/3_Fuji/new/fuji.htm
     http://www.jarl.or.jp/Japanese/3_Fuji/history/history.htm
 
     宇宙開発事業団(NASDA)ホームページ 

      1)「ふじ1号」(JAS−1:FO−12)
         http://spaceboy.nasda.go.jp/lib/satellites/jas/j/jas_01_j.html
         http://spaceboy.nasda.go.jp/lib/satellites/jas/g/h_15_017.jpg
         http://spaceboy.nasda.go.jp/lib/satellites/jas/e/jas_01_e.html
         http://space.nasda.go.jp/db/kaihatu/eisei/eisei_j/jas_1_a_j.html#2
         http://spaceboy.nasda.go.jp/note/eisei/j/eis15h_j.html#eis15h_01_j
         http://www.nasda.go.jp/lib/nasda-news/1996/12/resai_j.html
         http://spaceboy.nasda.go.jp/lib/satellites/jas/g/h_15_007.jpg
         http://www.nasda.go.jp/press/2002/02/pb_020220_j.html

      2)「ふじ2号」(JAS−1b:FO−20)
         http://spaceboy.nasda.go.jp/lib/satellites/mos/g/h_21_018.jpg
         http://spaceboy.nasda.go.jp/lib/satellites/mos/g/h_21_019.jpg
         http://spaceboy.nasda.go.jp/note/eisei/j/eis15h_j.html#eis15h_01_j

      3)「ふじ3号」(JAS−2:FO−29)
         http://www.nasda.go.jp/lib/nasda-news/1996/09/h2_j.html
         http://www.nasda.go.jp/pr/services/presskit/h2-f4/p-h2_3_e.html
         http://space.nasda.go.jp/db/kaihatu/eisei/eisei_j/jas-2_j.html
         http://spaceboy.nasda.go.jp/note/eisei/j/eis15i_j.html#eis15i_03_j

  D.JAMSATによる軌道情報の活用
        JAMSATのホームページまたはjamsat−kepsの軌道要素より
      衛星の軌道情報を得る.
     JAMSATホームページ
               URL    http://www.jamsat.or.jp
       上記ホームページでは各地で行われるアマチュア通信衛星に関する
      ミューティングのお知らせや世界のアマチュア衛星に関する情報が
      満載されています.

 ========================================================================  
     JAMSATのメンバーのご協力によりJH6MME(高山 秀造)が
    執筆・編集を担当しております.ご指摘の意見、疑問やこのようにしたら
    というアイデアがありましたら小さなことでもかまいませんので気軽に下
    記アドレスまでご連絡ください.jamsat−newsからjas2
    infoへの転載をJH4PHW局坂井さんに担当して頂いております.  
                  E-mail : jh6mme@jamsat.or.jp : jh4phw@jamsat.or.jp
 ===============================   END  ===============================